Regional Weather Roundup
Issued by NWS

Home | Current Version | Previous Version | Graphics & Text | Print | Product List | Glossary On
Versions: 1 2 3 4 5 6 7 8 9 10 11 12 13 14 15 16 17 18 19 20 21 22 23 24 25 26 27 28 29 30 31 32 33 34 35 36 37 38 39 40 41 42 43 44 45 46 47 48 49 50
000
ASUS43 KMPX 201810
RWRMN
WEATHER ROUNDUP FOR MINNESOTA
NATIONAL WEATHER SERVICE TWIN CITIES/CHANHASSEN MN
1200 PM CST SAT JAN 20 2018


NOTE: "FAIR" INDICATES FEW OR NO CLOUDS BELOW 12,000 FEET WITH NO
SIGNIFICANT WEATHER AND/OR OBSTRUCTIONS TO VISIBILITY. N/A MEANS
CURRENT SKY AND/OR WEATHER CONDITIONS ARE NOT AVAILABLE.

MNZ060>063-068>070-201900-
   Twin Cities Metro

CITY           SKY/WX    TMP DP  RH WIND       PRES   REMARKS
TWIN CITIES    CLOUDY    38  32  79 SW5       29.89S
6HR MIN TEMP:  24; 6HR MAX TEMP:  38;

ST PAUL        CLOUDY    35  31  85 CALM      29.90S
CRYSTAL        CLOUDY    39  29  67 S6        29.87F
BLAINE         CLOUDY    39  34  81 CALM      29.88S
LAKEVILLE        N/A     36  32  87 CALM      29.89F
EDEN PRAIRIE   PTSUNNY   37  30  75 SW7       29.89S
6HR MIN TEMP:  26; 6HR MAX TEMP:  38;

SOUTH ST PAUL  CLOUDY    38  31  74 CALM      29.89S
LAKE ELMO      FAIR      37  32  81 S6        29.90S
$$
MNZ001>005-007-008-013>017-022>024-027-028-201900-
   Northwest Minnesota

CITY           SKY/WX    TMP DP  RH WIND       PRES   REMARKS
BEMIDJI        FAIR      29  27  90 CALM      29.79F
HALLOCK        PTSUNNY   27  25  93 S6        29.80F WCI  20
ROSEAU         FAIR      28  23  80 SW5       29.79F WCI  23
WARROAD        FAIR      30  27  86 SW6       29.79F WCI  24
THIEF RVR FALL FAIR      30  25  81 S7        29.81F WCI  23
CROOKSTON      FAIR      28  27  93 SW5       29.83F WCI  23
FOSSTON        FAIR      30  28  93 SW5       29.82F WCI  25
DETROIT LAKES  FAIR      30  28  93 CALM      29.84S
MOORHEAD       FAIR      34  28  80 SW5       29.86S WCI  30
PARK RAPIDS    FAIR      30  29  96 SW6       29.81S WCI  24
MAHNOMEN       FAIR      29  27  92 SW7       29.82F WCI  22
$$
MNZ006-009>011-018-025>026-201900-
   North Central Minnesota

CITY           SKY/WX    TMP DP  RH WIND       PRES   REMARKS
BAUDETTE       FAIR      32  27  81 CALM      29.78F
FLAG ISLAND    CLOUDY    32  28  86 S3        29.77F
INTL FALLS     FAIR      34  26  72 CALM      29.78F
6HR MIN TEMP:  26; 6HR MAX TEMP:  34;

WASKISH        FAIR      30  27  86 SW5       29.80F WCI  25
BIG FORK       FAIR      32  30  93 SW5       29.80F WCI  27
LONGVILLE      FAIR      32  28  86 S3        29.82S
GRAND RAPIDS   PTSUNNY   33  27  78 CALM      29.82
CRANE LAKE     FAIR      36  28  75 CALM      29.81S
ORR            FAIR      34  25  69 W5        29.77F WCI  30
COOK           FAIR      34  28  80 CALM      29.80F
WALKER         CLOUDY    34  27  76 SW5       29.80F WCI  30
$$
MNZ012-019>021-037-201900-
   Northeast Minnesota

CITY           SKY/WX    TMP DP  RH WIND       PRES   REMARKS
DULUTH         PTSUNNY   36  30  79 W7        29.80F
6HR MIN TEMP:  26; 6HR MAX TEMP:  36;

ELY            FAIR      34  28  80 W5        29.79S WCI  30
HIBBING        PTSUNNY   31  28  89 CALM      29.80F
EVELETH        FAIR      30  27  87 SW3       29.82S
DULUTH HARBOR  FAIR      36  30  80 S9        29.84F
TWO HARBORS    FAIR      43  30  61 W7        29.79F
SILVER BAY     FAIR      39  30  70 SW3       29.79S
GRAND MARAIS     N/A     37  34  89 W10       29.81S
G MARAIS ARPRT FAIR      36  27  69 SW3       29.77R
$$
MNZ029>031-032-039>041-046>048-054>057-064-201900-
   West Central Minnesota

CITY           SKY/WX    TMP DP  RH WIND       PRES   REMARKS
FERGUS FALLS   FAIR      30  30 100 W5        29.85F WCI  25
WHEATON        MOSUNNY   39  30  70 W5        29.88F
MORRIS         CLOUDY    41  30  65 NW7       29.84F
ALEXANDRIA     CLOUDY    35  29  78 NW7       29.84F WCI  29
ELBOW LAKE     FAIR      35  30  83 NW7       29.85F HAZE    WCI  29
WADENA         FAIR      30  28  93 SW6       29.82F WCI  24
GLENWOOD       FAIR      36  30  80 NW6       29.84F
APPLETON       CLOUDY    37  30  75 CALM      29.88S
BENSON         CLOUDY    36  30  80 SW3       29.89F
ORTONVILLE     CLOUDY    39  30  70 S3        29.87S
MADISON        CLOUDY    43  32  65 CALM      29.88F
WILLMAR        FAIR      36  30  80 CALM      29.91S
$$
MNZ033>034-036-042>043-049>051-058-059-201900-
   Central Minnesota

CITY           SKY/WX    TMP DP  RH WIND       PRES   REMARKS
ST CLOUD       CLOUDY    35  31  85 SW5       29.87S WCI  31
6HR MIN TEMP:  25; 6HR MAX TEMP:  35;

SAUK CENTRE      N/A     33  29  87 CALM      29.86F
PAYNESVILLE    CLOUDY    34  32  92 CALM      29.87F
AITKIN         FAIR      32  28  86 SW3       29.83R
PINE RIVER     FAIR      32  27  80 CALM      29.86F
BRAINERD       CLOUDY    33  29  85 SW7       29.84F WCI  27
STAPLES        FAIR      30  30 100 W6        29.83F WCI  24
LONG PRAIRIE   FAIR      32  28  86 W5        29.85F WCI  27
LITTLE FALLS   CLOUDY    34  27  75 CALM      29.86F
LITCHFIELD     PTSUNNY   39  34  81 W3        29.89S
BUFFALO        PTSUNNY   37  31  78 S3        29.89S
MAPLE LAKE     PTSUNNY   38  32  78 MISG      29.89S
HUTCHINSON     CLOUDY    40  33  76 W5        29.90S
$$
MNZ037-044-045-052-053-201900-
   East Central Minnesota

CITY           SKY/WX    TMP DP  RH WIND       PRES   REMARKS
PRINCETON      FAIR      37  32  81 CALM      29.87F
MORA           FAIR      34  28  80 CALM      29.87F
CAMBRIDGE        N/A     37 N/A N/A CALM      29.88S
RUSH CITY      CLOUDY    34  29  83 CALM      29.88S
MOOSE LAKE     PTSUNNY   36  30  80 CALM      29.82F
HINCKLEY       FAIR      32  32 100 S3        29.85F
CLOQUET        FAIR      36  27  69 CALM      29.82S
MCGREGOR       CLOUDY    34  32  93 CALM      29.84S
$$
MNZ071>073-080-081-089-090-097-098-201900-
   Southwest Minnesota

CITY           SKY/WX    TMP DP  RH WIND       PRES   REMARKS
MONTEVIDEO     CLOUDY    43  34  70 W3        29.89F
GRANITE FALLS  CLOUDY    44  33  64 W3        29.92S
CANBY          CLOUDY    47  28  47 W6        29.90F
MARSHALL       CLOUDY    43  28  55 CALM      29.90S
REDWOOD FALLS  CLOUDY    40  31  70 NW5       29.90R
OLIVIA         CLOUDY    39  32  75 W7        29.90S
PIPESTONE      MOSUNNY   37  30  75 W3        29.88F
WINDOM         CLOUDY    39  21  48 CALM      29.88F
WORTHINGTON    PTSUNNY   40  32  73 S3        29.89F
JACKSON        CLOUDY    39  32  75 CALM      29.88F
TRACY          CLOUDY    41  32  71 CALM      29.89S
SLAYTON        CLOUDY    40  32  72 CALM      29.89S
$$
MNZ065>067-074>077-082>085-091>093-201900-
   South Central Minnesota

CITY           SKY/WX    TMP DP  RH WIND       PRES   REMARKS
MANKATO        CLOUDY    37  30  75 W3        29.90F
NEW ULM        MOSUNNY   37  30  75 CALM      29.90S
ST JAMES       CLOUDY    39  32  75 CALM      29.90F
FAIRMONT       CLOUDY    39  31  72 CALM      29.89F
FARIBAULT      CLOUDY    34  32  93 CALM      29.89F
OWATONNA       FAIR      34  32  93 CALM      29.88F
WASECA         FAIR      32  32 100 CALM      29.91S
ALBERT LEA     FAIR      37  32  81 CALM      29.88F
$$
MNZ078>079-086>088-094>096-201900-
   Southeast Minnesota

CITY           SKY/WX    TMP DP  RH WIND       PRES   REMARKS
ROCHESTER      FAIR      35  32  88 S5        29.88F WCI  31
6HR MIN TEMP:  25; 6HR MAX TEMP:  35;

RED WING       PTSUNNY   34  27  75 CALM      29.90R
STANTON        CLOUDY    34  31  87 CALM      29.88F
DODGE CENTER   FAIR      36  32  87 S3        29.87F
WINONA         FAIR      32  30  93 CALM      29.89F
AUSTIN         FAIR      37  30  75 CALM      29.88F
PRESTON        FAIR      37  30  78 CALM      29.88F
$$
ABBREVIATIONS USED IN REMARKS
   TC - TEMPERATURES IN CELSIUS
  WCI - WIND CHILL INDEX
   HX - HEAT INDEX
  VSB - VISIBILITY
$$



USA.gov is the U.S. government's official web portal to all federal, state and local government web resources and services.